Regional Weather Roundup
Issued by NWS

Home | Current Version | Previous Version | Text Only | Print | Product List | Glossary On
Versions: 1 2 3 4 5 6 7 8 9 10 11 12 13 14 15 16 17 18 19 20 21 22 23 24 25 26 27 28 29 30 31 32 33 34 35 36 37 38 39 40 41 42 43 44 45 46 47 48 49 50
000
ASUS43 KDTX 020901
RWRMI
MICHIGAN HOURLY REGIONAL WEATHER ROUNDUP
NATIONAL WEATHER SERVICE DETROIT/PONTIAC MI
500 AM EDT THU OCT 02 2014

NOTE: "FAIR" INDICATES FEW OR NO CLOUDS BELOW 12,000 FEET WITH NO
SIGNIFICANT WEATHER AND/OR OBSTRUCTION TO VISIBILITY.

MIZ047>049-052>055-059>063-066>070-074>076-081>083-021000-
SOUTHEAST LOWER MICHIGAN

CITY           SKY/WX    TMP DP  RH WIND       PRES   REMARKS
ADRIAN         FOG       52  51  97 SE3       30.01F VSB 3/4
ALMA           CLOUDY    55  55  97 SE6       29.99S FOG
ANN ARBOR      FOG       56  53  90 SE5       30.02F VSB 3/4
BAD AXE        FOG       55  55 100 SE6       30.04S VSB 1/2
CARO           CLOUDY    57  57 100 SE6       30.02S FOG
DETROIT CITY   FOG       55  54  96 CALM      30.05F VSB 1/2
DETROIT        FOG       54  53  97 CALM      30.03F VSB 1/2
FLINT          MOCLDY    60  56  86 SE12      30.01F FOG
GROSSE ILE     FOG       57  55  94 CALM      30.02S VSB 1/4
HILLSDALE      CLEAR     54  54 100 SE6       29.99F FOG
HOWELL         CLOUDY    57  57 100 SE8       30.01S FOG

CITY           SKY/WX    TMP DP  RH WIND       PRES   REMARKS
JACKSON        CLEAR     54  52  93 SE6       29.99F FOG
LAMBERTVILLE     N/A     50  46  87 CALM      30.02F FOG
LANSING        CLEAR     56  54  93 SE7       29.99F FOG
LAPEER         CLOUDY    56  55  97 SE3       30.03F FOG
MASON          PTCLDY    55  54  97 SE5       29.99F FOG
MONROE         FOG       48  46  93 CALM      30.01S VSB 1/4
MT. CLEMENS    CLOUDY    61  61 100 SE5       30.02S
PONTIAC        CLOUDY    59  58  96 S6        30.02S FOG
PORT HOPE        N/A     58  57  97 S5        30.02S
PORT HURON     FOG       57  57 100 SE5       30.04S VSB 1/2
TRI CITIES     CLOUDY    58  56  93 S8        30.02S
TROY           FOG       55  53  93 NE3       30.05S VSB 1/4
SAGINAW HB     FOG       50  50 100 CALM      30.01S VSB 1/2
$$
MIZ043>046-050>051-056>058-064>065-071>073-077>080-021000-
SOUTHWEST LOWER MICHIGAN

CITY           SKY/WX    TMP DP  RH WIND       PRES   REMARKS
BATTLE CREEK   CLOUDY    58  52  80 SE8       29.97F
BENTON HARBOR  LGT RAIN  58  53  84 SE10      29.91F
BIG RAPIDS     CLOUDY    51  51 100 S6        29.95S
COLDWATER      PTCLDY    56  53  88 SE7       29.97F
FREMONT        CLOUDY    56  50  81 SE6       29.93F
GRAND RAPIDS   CLOUDY    57  54  89 SE10      29.95F
IONIA          PTSUNNY   55  54  97 S6        29.97S FOG
LUDINGTON      LGT RAIN  57  51  82 CALM      29.92R
MARSHALL       PTCLDY    54  52  94 SE5       29.97F FOG
MOUNT PLEASANT FOG       51  51  99 SE6       29.98F VSB 1
MUSKEGON       LGT RAIN  60  50  69 SE8       29.92F
SOUTH HAVEN    CLOUDY    61  52  71 SE6       29.92S
$$
MIZ016>042-021000-
NORTHERN LOWER MICHIGAN

CITY           SKY/WX    TMP DP  RH WIND       PRES   REMARKS
ALPENA         CLOUDY    55  54  96 SE6       30.00F FOG
BEAVER ISLAND  LGT RAIN  57  55  92 SE3       29.95S
BELLAIRE       CLOUDY    58  51  76 S5        29.95F
CADILLAC       CLOUDY    56  51  84 SE6       29.95F
CHARLEVOIX     CLOUDY    55  54  98 E5        29.97F
FRANKFORT      CLOUDY    60  50  68 CALM      29.92R
GAYLORD        CLOUDY    54  51  90 S13       29.97F
GRAYLING       MOCLDY    54  54 100 SE3       29.98S
HARBOR SPRINGS CLOUDY    55  53  92 CALM      29.96S FOG
HOUGHTON LAKE  MOCLDY    50  50 100 SE5       29.99F
OSCODA         FOG       48  48 100 CALM      30.01S VSB 1/4
PELLSTON       CLOUDY    54  53  97 CALM      29.97S FOG
ROGERS CITY    CLOUDY    56  56  99 S6        30.00S FOG
TRAVERSE CITY  CLOUDY    57  50  77 CALM      29.93S
$$
MIZ007>008-015-021000-
EASTERN UPPER MICHIGAN

CITY           SKY/WX    TMP DP  RH WIND       PRES   REMARKS
MACKINAC ISLAN CLOUDY    57  56  99 SE6       29.97S FOG
NEWBERRY       LGT RAIN  54  54  97 S12       29.94S
S. S. MARIE    CLOUDY    57  55  93 SE9       29.97F FOG
MUNISING         N/A     57  53  86 S8        29.89F
$$
MIZ004>006-011>014-085-021000-
CENTRAL UPPER MICHIGAN

CITY           SKY/WX    TMP DP  RH WIND       PRES   REMARKS
MANISTIQUE     HVY RAIN  56  55  99 S7        29.93S
SAWYER-GWINN   CLOUDY    52  51  95 S9        29.89S FOG
$$
MIZ001>003-009>011-084-021000-
WESTERN UPPER MICHIGAN

CITY           SKY/WX    TMP DP  RH WIND       PRES   REMARKS
IRON MOUNTAIN  CLOUDY    53  52  96 SE5       29.87S FOG
HOUGHTON       CLOUDY    55  51  86 S7        29.84S
COPPER HARBOR    N/A     55  52  89 SW6       29.85S
$$

ABBREVIATIONS USED IN REMARKS
   TC - TEMPERATURE IN CELSIUS
  WCI - WIND CHILL INDEX
   HX - HEAT INDEX
  VSB - VISIBILITY



USA.gov is the U.S. government's official web portal to all federal, state and local government web resources and services.